Location: Oakland
(41.0130°N, 74.2650°W)
Time: 14:31:26
(UTC-05:00)

Daily predictions for brighter satellites

Satellite Brightness Start Highest point End
(mag) Time Altitude Azimuth Time Altitude Azimuth Time Altitude Azimuth
CZ-2C R/B 4.2 17:18:12 10° NNE 17:22:43 42° E 17:27:08 10° S
METEOR-M 4.5 17:17:52 10° SE 17:22:54 44° ENE 17:27:57 10° N
Geosat 4.3 17:19:28 10° NNE 17:24:30 74° WNW 17:29:30 10° SW
Meteor 2-1 Rocket 4.3 17:20:12 10° N 17:25:58 69° E 17:31:46 10° SSE
SMAP 3.1 17:21:24 10° SSE 17:26:03 84° ENE 17:30:44 10° NNW
IRAS Rocket 4.2 17:21:50 10° SSE 17:27:19 73° ENE 17:32:53 10° NNW
Cosmos 2221 3.4 17:24:27 10° NNE 17:28:12 27° ENE 17:31:56 10° SE
Cosmos 1726 3.2 17:25:19 10° NNE 17:28:22 24° ENE 17:31:22 10° SE
Meteor 1-24 Rocket 4.0 17:24:02 10° SSW 17:29:39 76° W 17:35:32 10° N
COSMO-SKYMED 1 3.3 17:27:01 10° NNE 17:30:57 33° E 17:34:52 10° SSE
Cosmos 1867 4.1 17:27:29 10° SW 17:32:50 60° NW 17:38:15 10° NNE
Nadezhda 1 Rocket 4.1 17:27:12 10° S 17:33:23 84° W 17:39:44 10° N
ATLAS 2AS CENTAUR R/B 3.1 17:26:07 10° NNW 17:33:55 53° NE 17:41:07 10° SE
TELKOM 3 4.4 17:33:28 10° W 17:35:19 24° NNW 17:37:13 10° NE
Cosmos 968 Rocket 4.4 17:32:45 10° N 17:37:03 26° ENE 17:41:18 10° ESE
USA 161 4.2 17:36:49 10° NW 17:37:58 13° WNW 17:39:05 10° W
Cosmos 2341 Rocket 4.1 17:33:57 10° N 17:40:05 55° E 17:46:14 10° SSE
Cosmos 1674 2.6 17:36:32 10° S 17:40:17 72° E 17:44:02 10° NNE
Lacrosse 4 Rocket 3.7 17:37:23 10° W 17:40:20 19° NW 17:43:17 10° N
NOSS 2-1 (E) 3.2 17:40:38 10° SSW 17:44:17 65° ESE 17:48:18 10° NE
Landsat 4 4.3 17:41:00 10° NNE 17:44:29 36° E 17:47:56 10° SSE
CZ-4 R/B 4.4 17:43:06 10° SSE 17:47:10 65° ENE 17:51:16 10° N
Cosmos 2369 Rocket 2.3 17:42:36 10° NNW 17:48:11 57° ENE 17:53:46 10° SE
Cosmos 1842 Rocket 3.7 17:44:05 10° N 17:48:33 82° W 17:52:57 10° S
Cosmos 1484 Rocket 4.3 17:45:01 10° SSW 17:48:38 39° W 17:52:13 10° NNW
Meteor 2-10 4.2 17:45:56 10° N 17:50:45 44° ENE 17:55:35 10° SSE
IRS-1A Rocket 4.2 17:46:12 10° SSE 17:51:42 81° ENE 17:57:19 10° NNW
Cosmos 1315 Rocket 4.2 17:49:16 10° SE 17:52:02 19° E 17:53:24 16° ENE
Cosmos 2154 Rocket 4.4 17:54:12 10° NNW 18:00:28 71° W 18:06:45 10° S
SKYMED 3 4.5 17:56:42 10° NNE 18:01:04 72° ESE 18:05:22 10° S
Tiangong 1 0.4 17:58:50 10° W 18:01:19 76° NNW 18:02:19 31° ENE
Cosmos 1300 3.2 17:57:58 10° N 18:01:30 35° ENE 18:05:01 10° SE
MONITOR-E 4.1 17:58:46 10° SSE 18:01:45 57° ENE 18:04:46 10° N
OAO 3 Rocket 4.5 17:57:42 10° SW 18:01:47 30° SSE 18:05:12 14° ESE
NOSS 3-3 (A) 3.9 17:56:57 10° SSW 18:02:58 84° ESE 18:09:32 10° NE
NOSS 3-3 (C) 3.9 17:57:04 10° SSW 18:03:05 83° ESE 18:09:38 10° NE
Okean 3 Rocket 3.8 17:58:43 10° SSE 18:03:05 49° E 18:07:28 10° NNE
USA 116 4.4 17:59:14 10° N 18:03:13 62° WNW 18:07:43 10° SSW
Cosmos 1076 Rocket 3.7 18:00:28 10° SSE 18:04:38 48° E 18:08:51 10° NNE
Cosmos 2181 Rocket 4.0 18:00:34 10° S 18:06:58 76° E 18:13:25 10° N
ALOS 2.2 18:03:30 10° SSE 18:08:08 72° ENE 18:12:48 10° N
Cosmos 1354 Rocket 4.3 18:04:53 10° NNW 18:10:12 75° WSW 18:15:29 10° S
SPOT 3 Rocket 3.5 18:05:40 10° SSE 18:10:43 61° ENE 18:15:48 10° N
Cosmos 2084 3.3 18:07:14 10° NW 18:11:02 76° WSW 18:14:55 10° SSE
Cosmos 1626 3.8 18:08:29 10° SE 18:10:06 18° ESE 18:10:06 18° ESE
Meteor 1-21 Rocket 4.3 18:05:42 10° S 18:11:35 87° E 18:17:32 10° N
Cosmos 1766 Rocket 4.2 18:08:20 10° SSE 18:12:11 32° E 18:14:21 20° NE
Cosmos 1943 Rocket 2.1 18:09:29 10° NNW 18:15:04 62° ENE 18:20:33 10° SE
Cosmos 1656 Rocket 4.5 18:11:28 10° N 18:16:08 28° NE 18:17:56 23° E
MOS 1 4.3 18:12:08 10° SSE 18:17:46 89° ENE 18:23:27 10° NNW
GEOS 3 Rocket 3.8 18:12:54 10° ESE 18:18:01 52° NE 18:23:13 10° NNW
MTI 3.9 18:14:52 10° N 18:18:05 72° WNW 18:21:15 10° SSW
SKYMED 2 3.8 18:14:46 10° N 18:19:07 71° WNW 18:23:25 10° SSW
ERS-2 2.0 18:20:40 10° SSE 18:24:18 65° ENE 18:27:58 10° N
Cosmos 1400 Rocket 2.9 18:22:06 10° SSW 18:26:06 77° W 18:30:12 10° N
Cosmos 1328 4.0 18:23:15 10° SSE 18:27:06 49° E 18:28:46 29° NE
YAOGAN 1 4.0 18:25:19 10° SSW 18:29:22 39° W 18:33:27 10° NNW
Cosmos 2218 Rocket 3.8 18:26:57 10° N 18:33:10 77° E 18:39:17 10° SSE
H-2A R/B 2.6 18:30:50 10° SSE 18:34:32 60° ENE 18:38:19 10° N
SL-8 Rocket 4.0 18:30:03 10° N 18:36:16 84° W 18:42:28 10° S
NOAA 12 4.3 18:31:32 10° S 18:36:44 72° WSW 18:42:00 10° NNW
BREEZE-M R/B 4.3 18:32:08 10° WSW 18:36:46 71° NNW 18:47:13 22° ENE
FENGYUN 3A 4.0 18:31:48 10° S 18:37:07 66° W 18:42:27 10° NNW
Cosmos 1777 Rocket 4.3 18:38:01 10° N 18:42:57 40° ENE 18:42:58 40° ENE
SL-08 R/B 4.3 18:41:52 10° N 18:48:08 82° E 18:54:15 10° S
Cosmos 2098 Rocket 3.7 18:44:06 10° N 18:48:44 48° E 18:54:32 10° SSE
Cosmos 1943 4.2 18:45:58 10° SW 18:51:19 44° WNW 18:56:34 11° NNE
Cosmos 44 3.9 18:56:48 10° SSW 18:59:40 36° SSE 18:59:40 36° SSE
Cosmos 1408 Rocket 3.7 19:03:40 10° SSW 19:07:57 68° W 19:08:58 48° NNW
Cosmos 44 Rocket 4.2 19:08:37 10° SSW 19:11:26 34° S 19:11:26 34° S
ATLAS 2AS CENTAUR R/B 4.2 19:17:39 10° NW 19:24:40 37° WSW 19:31:10 10° S
Nadezhda 3 Rocket 3.9 19:24:18 10° S 19:30:37 88° W 19:32:36 48° N
Thor Agena Rocket 3.9 19:34:00 59° NW 19:34:34 63° WNW 19:39:44 10° SSW
NOSS 3-4 (A) 3.7 19:40:22 10° NW 19:47:29 84° WSW 19:47:55 79° S
NOSS 3-4 (C) 3.7 19:40:28 10° NW 19:47:34 85° WSW 19:47:57 81° S
